Change the Weather History Date:

Tuesday, July 22, 2014

  Actual Average Record
Temperature  
Mean Temperature 78 °F 82 °F  
Max Temperature 88 °F 91 °F 98 °F (1907)
Min Temperature 68 °F 73 °F 67 °F (1956)
Cooling Degree Days 13 17  
Month to date cooling degree days 328 372  
Year to date cooling degree days 1076 1261  
Since 1 June cooling degree days 738 816  
Growing Degree Days 28 (Base 50)    
Moisture  
Dew Point 73 °F    
Average Humidity 82    
Maximum Humidity 100    
Minimum Humidity 63    
Precipitation  
Precipitation 1.42 in 0.23 in 4.63 in (1873)
Month to date precipitation 6.58 5.12  
Year to date precipitation 53.23 38.07  
Sea Level Pressure  
Sea Level Pressure 30.03 in    
Wind  
Wind Speed 4 mph (North)    
Max Wind Speed 38 mph    
Max Gust Speed 46 mph    
Visibility 6 miles    
Events Fog , Rain , Thunderstorm    
T = Trace of Precipitation, MM = Missing Value Source: NWS Daily Summary

Daily Weather History Graph

Daily Weather History Graph

Search for Another Location

Airport or City:

Trip Planner

Search our weather history database for the weather conditions in past years. The results will help you decide how hot, cold, wet, or windy it might be!

Date:

Astronomy

Jul. 22, 2014 Rise Set
Actual Time 6:04 AM CDT 7:53 PM CDT
Civil Twilight 5:37 AM CDT 8:20 PM CDT
Nautical Twilight 5:05 AM CDT 8:52 PM CDT
Astronomical Twilight 4:31 AM CDT 9:26 PM CDT
Moon 2:34 AM CDT (7/22) 4:33 PM CDT (7/22)
Length of Visible Light 14h 42m
Length of Day
13h 49m
Waning Crescent, 16% of the Moon is Illuminated
Jul 22
Waning Crescent
Jul 26
New
Aug 3
First Quarter
Aug 10
Full
Aug 17
Last Quarter

Hourly Weather History & Observations

Time (CDT) Temp. Heat Index Dew Point Humidity Pressure Visibility Wind Dir Wind Speed Gust Speed Precip Events Conditions
12:56 AM 75.0 °F - 75.0 °F 100% 30.00 in 9.0 mi West 4.6 mph - N/A   Partly Cloudy
1:56 AM 75.9 °F - 75.0 °F 97% 29.99 in 9.0 mi Calm Calm - N/A   Overcast
2:56 AM 75.0 °F - 75.0 °F 100% 29.98 in 7.0 mi WNW 4.6 mph - N/A   Clear
3:56 AM 73.9 °F - 73.9 °F 100% 29.98 in 5.0 mi WNW 4.6 mph - N/A   Clear
4:56 AM 73.9 °F - 73.9 °F 100% 29.99 in 8.0 mi NW 3.5 mph - N/A   Clear
5:56 AM 73.9 °F - 73.9 °F 100% 30.00 in 4.0 mi Calm Calm - N/A   Overcast
6:40 AM 73.9 °F - 73.9 °F 100% 30.03 in 3.0 mi North 3.5 mph - N/A   Overcast
6:56 AM 73.9 °F - 73.9 °F 100% 30.02 in 3.0 mi Calm Calm - N/A   Overcast
7:00 AM 73.9 °F - 73.9 °F 100% 30.03 in 4.0 mi Calm Calm - N/A   Mostly Cloudy
7:56 AM 75.0 °F - 75.0 °F 100% 30.04 in 4.0 mi Calm Calm - N/A   Scattered Clouds
8:56 AM 81.0 °F 86.7 °F 75.0 °F 82% 30.04 in 4.0 mi North 5.8 mph - N/A   Haze
9:00 AM 81.0 °F 87.3 °F 75.9 °F 85% 30.05 in 4.0 mi NNE 5.8 mph - N/A   Haze
9:56 AM 82.9 °F 90.2 °F 75.0 °F 77% 30.05 in 7.0 mi NE 3.5 mph - N/A   Mostly Cloudy
10:56 AM 86.0 °F 95.1 °F 75.0 °F 70% 30.04 in 7.0 mi North 6.9 mph - N/A   Mostly Cloudy
12:22 PM 87.1 °F 95.4 °F 73.9 °F 65% 30.04 in 7.0 mi NNE 6.9 mph - N/A Thunderstorm Mostly Cloudy
12:39 PM 84.9 °F 93.3 °F 75.0 °F 72% 30.04 in 7.0 mi NE 9.2 mph - N/A   Mostly Cloudy
12:56 PM 82.9 °F 90.8 °F 75.9 °F 79% 30.03 in 7.0 mi North 12.7 mph - N/A Thunderstorm Thunderstorm
1:14 PM 78.1 °F - 75.9 °F 93% 30.03 in 3.0 mi NNE 15.0 mph - 0.03 in Rain , Thunderstorm Heavy Thunderstorms and Rain
1:24 PM 77.0 °F - 73.9 °F 90% 30.07 in 2.0 mi South 21.9 mph 31.1 mph 0.21 in Rain , Thunderstorm Heavy Thunderstorms and Rain
1:27 PM 75.0 °F - 73.0 °F 94% 30.07 in 1.0 mi South 18.4 mph 31.1 mph 0.21 in Rain , Thunderstorm Heavy Thunderstorms and Rain
1:34 PM 73.0 °F - 72.0 °F 96% 30.10 in 0.2 mi SE 28.8 mph 39.1 mph 0.25 in Fog , Rain , Thunderstorm Heavy Thunderstorms and Rain
1:38 PM 71.1 °F - 71.1 °F 100% 30.10 in 0.2 mi SE 21.9 mph 46.0 mph 0.39 in Fog , Rain , Thunderstorm Heavy Thunderstorms and Rain
1:56 PM 69.1 °F - 66.9 °F 93% 30.04 in 0.8 mi Variable 5.8 mph - 1.38 in Rain , Thunderstorm Heavy Thunderstorms and Rain
2:03 PM 69.1 °F - 66.9 °F 93% 30.04 in 1.2 mi SE 11.5 mph 17.3 mph 0.03 in Rain , Thunderstorm Thunderstorms and Rain
2:16 PM 70.0 °F - 66.9 °F 90% 30.04 in 3.0 mi WSW 5.8 mph - 0.04 in Rain , Thunderstorm Light Thunderstorms and Rain
2:33 PM 69.1 °F - 68.0 °F 96% 30.04 in 7.0 mi Variable 3.5 mph - 0.04 in   Mostly Cloudy
2:56 PM 73.0 °F - 71.1 °F 93% 30.03 in 7.0 mi NE 8.1 mph - 0.04 in   Mostly Cloudy
3:56 PM 81.0 °F 86.2 °F 73.9 °F 79% 30.01 in 10.0 mi Variable 3.5 mph - N/A   Mostly Cloudy
4:56 PM 82.9 °F 89.4 °F 73.9 °F 74% 30.01 in 10.0 mi NNW 4.6 mph - N/A   Mostly Cloudy
5:09 PM 82.0 °F 87.9 °F 73.9 °F 76% 30.03 in 10.0 mi North 8.1 mph - N/A Thunderstorm Overcast
5:28 PM 81.0 °F 86.2 °F 73.9 °F 79% 30.02 in 10.0 mi West 6.9 mph - N/A   Partly Cloudy
5:39 PM 81.0 °F 86.2 °F 73.9 °F 79% 30.02 in 10.0 mi Variable 4.6 mph - 0.00 in Rain , Thunderstorm Light Thunderstorms and Rain
5:56 PM 80.1 °F 84.5 °F 73.9 °F 81% 30.01 in 10.0 mi West 4.6 mph - 0.00 in Rain Light Rain
6:56 PM 78.1 °F - 73.0 °F 84% 30.02 in 10.0 mi NW 3.5 mph - 0.00 in   Mostly Cloudy
7:56 PM 75.0 °F - 71.1 °F 87% 30.04 in 10.0 mi NNW 4.6 mph - N/A   Mostly Cloudy
8:56 PM 75.0 °F - 71.1 °F 87% 30.05 in 10.0 mi NNE 4.6 mph - N/A   Scattered Clouds
9:56 PM 73.9 °F - 72.0 °F 93% 30.04 in 10.0 mi SSE 5.8 mph - N/A   Mostly Cloudy
10:56 PM 73.9 °F - 73.0 °F 97% 30.05 in 10.0 mi Calm Calm - N/A   Overcast
11:56 PM 73.0 °F - 71.1 °F 93% 30.05 in 10.0 mi Calm Calm - N/A   Clear